QPF
0.04 0.02 0.01 0.02 0.04 0.04 0.04 0.02 0.05 0.10 0.09 0.08 0.04 0.01 0.00 0.00 0.00 0.00 0.00 0.00 0.00 0.00 0.00 0.00 0.00 0.00 0.00
0.02 0.03 0.03 0.03 0.01 0.04 0.05 0.02 0.01 0.08 0.06 0.05 0.03 0.01 0.01 0.00 0.00 0.00 0.00 0.00 0.00 0.00 0.00 0.00 0.00 0.00 0.00
0.01 0.01 0.01 0.02 0.01 0.01 0.01 0.04 0.04 0.08 0.02 0.01 0.01 0.01 0.00 0.00 0.00 0.00 0.00 0.00 0.00 0.00 0.00 0.00 0.00 0.00 0.00
0.00 0.00 0.00 0.00 0.00 0.01 0.02 0.01 0.01 0.02 0.02 0.01 0.01 0.00 0.00 0.00 0.00 0.00 0.00 0.00 0.00 0.00 0.00 0.00 0.00 0.00 0.00
0.00 0.00 0.00 0.00 0.00 0.01 0.02 0.03 0.02 0.01 0.01 0.01 0.00 0.00 0.00 0.00 0.00 0.00 0.00 0.00 0.00 0.00 0.00 0.00 0.00 0.00 0.00
0.01 0.00 0.00 0.00 0.01 0.02 0.02 0.03 0.03 0.02 0.01 0.00 0.00 0.00 0.00 0.00 0.00 0.00 0.00 0.00 0.00 0.00 0.00 0.00 0.00 0.00 0.00
0.03 0.04 0.01 0.00 0.01 0.03 0.03 0.03 0.02 0.01 0.01 0.01 0.00 0.00 0.00 0.00 0.00 0.00 0.00 0.00 0.00 0.00 0.00 0.00 0.00 0.00 0.00
0.01 0.03 0.05 0.02 0.00 0.02 0.03 0.02 0.01 0.00 0.00 0.00 0.00 0.00 0.00 0.00 0.00 0.00 0.00 0.00 0.00 0.00 0.00 0.00 0.00 0.00 0.00
0.04 0.02 0.01 0.01 0.01 0.01 0.00 0.00 0.00 0.00 0.00 0.00 0.00 0.00 0.00 0.00 0.00 0.00 0.00 0.00 0.00 0.00 0.00 0.00 0.00 0.00 0.00
0.02 0.01 0.00 0.00 0.00 0.01 0.00 0.00 0.00 0.00 0.00 0.00 0.00 0.00 0.00 0.00 0.00 0.00 0.00 0.00 0.00 0.00 0.00 0.00 0.00 0.00 0.00
0.02 0.01 0.00 0.00 0.00 0.00 0.00 0.00 0.00 0.00 0.00 0.00 0.00 0.00 0.00 0.00 0.00 0.00 0.00 0.00 0.00 0.00 0.00 0.00 0.00 0.00 0.00
0.01 0.00 0.00 0.00 0.00 0.00 0.00 0.00 0.00 0.00 0.00 0.00 0.00 0.00 0.00 0.00 0.00 0.00 0.00 0.00 0.00 0.00 0.00 0.00 0.00 0.00 0.00
0.00 0.00 0.00 0.00 0.00 0.00 0.00 0.00 0.00 0.00 0.00 0.00 0.00 0.00 0.00 0.00 0.00 0.00 0.00 0.00 0.00 0.00 0.00 0.00 0.00 0.00 0.00
0.00 0.00 0.00 0.00 0.00 0.00 0.00 0.00 0.00 0.00 0.00 0.00 0.00 0.00 0.00 0.00 0.00 0.00 0.00 0.00 0.00 0.00 0.00 0.00 0.00 0.00 0.00
0.00 0.00 0.00 0.00 0.00 0.00 0.00 0.00 0.00 0.00 0.00 0.00 0.00 0.00 0.00 0.00 0.00 0.00 0.00 0.00 0.00 0.00 0.00 0.00 0.00 0.00 0.00
0.00 0.00 0.00 0.00 0.00 0.00 0.00 0.00 0.00 0.00 0.00 0.00 0.00 0.00 0.00 0.00 0.00 0.00 0.00 0.00 0.00 0.00 0.00 0.00 0.00 0.00 0.00
0.00 0.00 0.00 0.00 0.00 0.00 0.00 0.00 0.00 0.00 0.00 0.00 0.00 0.00 0.00 0.00 0.00 0.00 0.00 0.00 0.00 0.00 0.00 0.00 0.00 0.00 0.00
MSLP
1017.09 1017.28 1017.53 1017.76 1018.27 1018.56 1018.68 1019.13 1019.72 1020.32 1021.19 1021.81 1022.46 1023.00 1023.60 1023.71 1024.03 1024.30 1024.52 1024.51 1024.62 1024.98 1025.18 1025.18 1024.96 1024.76 1024.57
1016.91 1017.31 1017.78 1018.19 1018.55 1018.63 1018.90 1019.37 1020.04 1020.61 1021.22 1021.91 1022.63 1023.13 1023.56 1023.75 1023.89 1024.12 1024.36 1024.50 1024.73 1025.06 1025.10 1025.09 1024.75 1024.69 1024.35
1016.12 1017.15 1017.95 1018.15 1018.72 1019.11 1019.53 1020.08 1020.56 1020.83 1021.46 1022.03 1022.58 1023.10 1023.42 1023.70 1023.68 1024.09 1024.41 1024.38 1024.68 1024.95 1024.80 1024.90 1024.67 1024.49 1024.26
1015.36 1016.51 1017.42 1018.03 1018.49 1019.16 1020.27 1020.78 1021.35 1021.41 1021.86 1022.33 1022.77 1023.07 1023.39 1023.42 1023.81 1024.16 1024.28 1024.52 1024.60 1024.55 1024.68 1024.67 1024.50 1024.34 1024.04
1014.88 1015.81 1017.17 1017.87 1018.23 1018.96 1020.12 1021.02 1021.83 1021.95 1022.47 1023.09 1023.37 1023.43 1023.67 1023.72 1023.87 1023.97 1024.21 1024.37 1024.40 1024.52 1024.59 1024.49 1024.24 1023.98 1023.71
1014.20 1015.11 1016.15 1016.73 1017.51 1018.50 1019.73 1020.86 1022.08 1022.28 1022.54 1023.33 1023.38 1023.50 1023.73 1023.67 1023.82 1023.91 1024.11 1024.14 1024.42 1024.50 1024.42 1024.18 1023.88 1023.65 1023.32
1013.01 1013.80 1015.15 1015.64 1016.61 1018.23 1019.08 1019.84 1020.95 1022.08 1022.50 1023.11 1023.35 1023.40 1023.56 1023.68 1023.78 1023.89 1023.94 1024.23 1024.36 1024.29 1024.17 1023.87 1023.58 1023.26 1023.01
1012.18 1013.21 1013.87 1014.86 1016.01 1016.95 1018.48 1019.99 1021.30 1022.20 1022.31 1022.77 1023.39 1023.28 1023.48 1023.57 1023.76 1023.75 1024.05 1024.17 1024.21 1024.17 1023.87 1023.65 1023.27 1022.87 1022.57
1012.46 1013.29 1014.02 1014.97 1016.02 1017.17 1018.72 1019.53 1021.30 1022.06 1022.44 1022.39 1023.12 1023.05 1023.39 1023.50 1023.66 1023.73 1024.11 1024.19 1024.11 1023.92 1023.64 1023.37 1022.98 1022.52 1021.99
1013.47 1014.15 1014.93 1015.75 1016.46 1016.87 1017.77 1018.88 1020.27 1021.75 1022.23 1022.42 1022.87 1023.20 1023.47 1023.73 1023.77 1023.88 1024.02 1024.14 1023.93 1023.76 1023.49 1023.23 1022.87 1022.12 1021.55
1014.28 1015.19 1016.10 1016.88 1017.40 1017.83 1018.30 1018.80 1019.81 1020.96 1021.86 1022.30 1023.01 1023.45 1023.53 1023.63 1023.74 1023.84 1023.93 1023.84 1023.78 1023.59 1023.34 1022.82 1022.57 1022.36 1021.61
1015.13 1016.21 1016.92 1017.77 1018.34 1018.82 1019.33 1019.84 1020.21 1020.75 1021.94 1022.31 1022.98 1023.27 1023.57 1023.82 1023.82 1023.84 1023.72 1023.66 1023.70 1023.35 1022.95 1022.60 1022.30 1021.92 1021.58
1015.93 1017.00 1017.80 1018.52 1019.08 1019.74 1020.40 1020.94 1021.46 1022.04 1022.39 1022.63 1022.92 1023.46 1023.77 1023.96 1024.04 1024.02 1023.84 1023.45 1023.39 1023.20 1023.02 1022.53 1021.89 1021.38 1020.74
1016.50 1017.71 1018.58 1019.19 1019.79 1020.41 1020.92 1021.58 1022.03 1022.83 1023.12 1023.22 1023.42 1023.68 1023.91 1024.08 1024.26 1024.22 1024.10 1023.83 1023.38 1023.17 1022.92 1022.24 1021.44 1020.82 1020.39
1017.13 1018.09 1018.93 1019.64 1020.43 1021.04 1021.47 1021.86 1022.21 1023.04 1023.46 1023.54 1023.64 1023.72 1023.90 1024.22 1024.19 1024.11 1023.94 1023.81 1023.57 1023.19 1022.65 1021.81 1020.98 1020.44 1020.11
1017.75 1018.52 1019.26 1020.00 1020.80 1021.51 1021.78 1022.11 1022.76 1023.44 1023.75 1023.89 1023.74 1023.80 1024.15 1024.30 1024.31 1024.07 1023.93 1023.85 1023.55 1023.13 1022.68 1021.87 1020.55 1019.94 1019.62
1018.34 1019.19 1019.87 1020.51 1021.16 1021.76 1022.29 1022.77 1023.38 1023.76 1024.13 1024.46 1024.35 1024.28 1024.30 1024.32 1024.22 1024.05 1024.14 1023.73 1023.37 1022.87 1022.45 1022.07 1021.25 1019.78 1019.48
Thickness
5495 5497 5502 5504 5503 5501 5502 5501 5498 5496 5489 5484 5480 5475 5468 5466 5463 5460 5457 5454 5451 5445 5439 5436 5435 5434 5431
5482 5485 5486 5487 5487 5490 5490 5488 5484 5481 5478 5473 5467 5462 5458 5456 5453 5451 5446 5443 5438 5433 5429 5427 5425 5421 5420
5476 5474 5473 5476 5474 5474 5474 5473 5470 5468 5464 5460 5455 5451 5447 5444 5443 5439 5434 5432 5428 5423 5421 5416 5414 5411 5409
5473 5469 5466 5466 5466 5463 5457 5456 5453 5453 5450 5446 5442 5440 5437 5436 5431 5426 5425 5421 5417 5415 5410 5406 5404 5401 5398
5464 5462 5456 5456 5458 5453 5447 5442 5437 5439 5435 5432 5429 5427 5425 5423 5420 5418 5414 5410 5406 5403 5399 5396 5394 5392 5389
5457 5459 5454 5454 5451 5447 5439 5435 5430 5425 5425 5420 5418 5416 5413 5413 5410 5407 5402 5399 5394 5391 5389 5387 5386 5383 5382
5460 5459 5452 5452 5448 5438 5436 5435 5427 5417 5414 5409 5407 5406 5403 5401 5398 5395 5391 5387 5384 5382 5380 5379 5378 5377 5375
5459 5454 5453 5449 5444 5440 5431 5419 5411 5405 5405 5402 5395 5396 5392 5390 5388 5385 5381 5378 5375 5373 5373 5372 5372 5370 5368
5447 5445 5443 5438 5434 5428 5418 5414 5400 5396 5392 5394 5387 5387 5384 5382 5378 5375 5371 5368 5367 5367 5367 5366 5365 5363 5362
5430 5430 5427 5423 5421 5421 5416 5409 5398 5388 5385 5385 5380 5377 5377 5370 5369 5366 5363 5361 5362 5361 5360 5358 5357 5356 5354
5417 5414 5411 5408 5407 5406 5403 5401 5395 5386 5379 5376 5371 5367 5365 5364 5362 5359 5358 5357 5356 5354 5352 5351 5349 5345 5344
5406 5401 5399 5395 5393 5391 5388 5386 5384 5381 5371 5369 5363 5361 5358 5356 5357 5353 5353 5351 5348 5347 5345 5343 5340 5336 5332
5394 5389 5387 5384 5382 5378 5374 5370 5367 5363 5361 5359 5357 5353 5351 5349 5349 5346 5344 5345 5342 5338 5333 5331 5331 5327 5323
5385 5379 5375 5373 5370 5366 5363 5358 5356 5350 5349 5349 5348 5347 5345 5343 5339 5337 5335 5332 5330 5327 5323 5322 5322 5319 5314
5375 5371 5367 5364 5359 5356 5353 5351 5350 5345 5342 5342 5342 5342 5340 5336 5334 5331 5328 5324 5321 5318 5315 5313 5312 5308 5301
5366 5362 5359 5355 5350 5346 5346 5344 5340 5336 5335 5335 5336 5337 5334 5330 5326 5323 5320 5315 5312 5308 5304 5301 5300 5295 5287
5355 5351 5348 5345 5342 5339 5336 5334 5330 5329 5327 5325 5327 5327 5329 5327 5320 5314 5310 5307 5303 5299 5293 5287 5282 5281 5270